Time,TemperatureF,DewpointF,PressureIn,WindDirection,WindDirectionDegrees,WindSpeedMPH,WindSpeedGustMPH,Humidity,HourlyPrecipIn,Conditions,Clouds,dailyrainin,SoftwareType,DateUTC
2013-02-24 00:09:00,34.4,32.3,29.70,SE,136,0.0,0.0,92,0.00,,,0.00,Wunderground v.1.15,2013-02-24 05:09:00,
2013-02-24 00:19:00,34.3,32.2,29.70,SE,136,0.0,0.0,92,0.00,,,0.00,Wunderground v.1.15,2013-02-24 05:19:00,
2013-02-24 00:29:00,34.3,32.2,29.69,SE,137,0.0,0.0,92,0.00,,,0.00,Wunderground v.1.15,2013-02-24 05:29:00,
2013-02-24 00:40:00,34.3,32.2,29.69,SSE,162,0.0,0.0,92,0.00,,,0.00,Wunderground v.1.15,2013-02-24 05:40:00,
2013-02-24 00:49:00,34.4,32.3,29.69,SW,216,0.0,1.0,92,0.00,,,0.00,Wunderground v.1.15,2013-02-24 05:49:00,
2013-02-24 00:59:00,34.4,32.3,29.69,SSW,210,1.0,2.0,92,0.00,,,0.00,Wunderground v.1.15,2013-02-24 05:59:00,
2013-02-24 01:09:00,34.4,32.3,29.69,SSW,210,1.0,1.0,92,0.00,,,0.00,Wunderground v.1.15,2013-02-24 06:09:00,
2013-02-24 01:19:00,34.4,32.3,29.69,SSW,202,0.0,1.0,92,0.00,,,0.00,Wunderground v.1.15,2013-02-24 06:19:00,
2013-02-24 01:30:00,34.4,32.3,29.69,SSW,202,0.0,0.0,92,0.00,,,0.00,Wunderground v.1.15,2013-02-24 06:30:00,
2013-02-24 01:39:00,34.6,32.5,29.69,SW,234,0.0,0.0,92,0.00,,,0.00,Wunderground v.1.15,2013-02-24 06:39:00,
2013-02-24 01:49:00,34.6,32.5,29.69,SW,234,0.0,0.0,92,0.00,,,0.00,Wunderground v.1.15,2013-02-24 06:49:00,
2013-02-24 01:59:00,34.6,32.5,29.69,SW,220,0.0,0.0,92,0.00,,,0.00,Wunderground v.1.15,2013-02-24 06:59:00,
2013-02-24 02:10:00,34.6,32.5,29.69,SW,220,0.0,0.0,92,0.00,,,0.00,Wunderground v.1.15,2013-02-24 07:10:00,
2013-02-24 02:19:00,34.6,32.5,29.69,SW,220,0.0,0.0,92,0.00,,,0.00,Wunderground v.1.15,2013-02-24 07:19:00,
2013-02-24 02:29:00,34.6,32.5,29.68,SW,220,0.0,0.0,92,0.00,,,0.00,Wunderground v.1.15,2013-02-24 07:29:00,
2013-02-24 02:39:00,34.6,32.5,29.68,SW,220,0.0,0.0,92,0.00,,,0.00,Wunderground v.1.15,2013-02-24 07:39:00,
2013-02-24 02:50:00,34.4,32.3,29.67,SW,220,0.0,0.0,92,0.00,,,0.00,Wunderground v.1.15,2013-02-24 07:50:00,
2013-02-24 02:59:00,34.4,32.3,29.67,SW,220,0.0,0.0,92,0.00,,,0.00,Wunderground v.1.15,2013-02-24 07:59:00,
2013-02-24 03:09:00,34.1,32.0,29.67,SW,220,0.0,0.0,92,0.00,,,0.00,Wunderground v.1.15,2013-02-24 08:09:00,
2013-02-24 03:20:00,34.1,32.0,29.67,SW,220,0.0,0.0,92,0.00,,,0.00,Wunderground v.1.15,2013-02-24 08:20:00,
2013-02-24 03:29:00,34.1,32.0,29.67,SW,220,0.0,0.0,92,0.00,,,0.00,Wunderground v.1.15,2013-02-24 08:29:00,
2013-02-24 03:39:00,34.1,32.0,29.67,SW,220,0.0,0.0,92,0.00,,,0.01,Wunderground v.1.15,2013-02-24 08:39:00,
2013-02-24 03:49:00,34.1,32.0,29.68,SW,220,0.0,0.0,92,0.00,,,0.01,Wunderground v.1.15,2013-02-24 08:49:00,
2013-02-24 03:59:00,34.1,32.0,29.68,South,174,0.0,0.0,92,0.00,,,0.01,Wunderground v.1.15,2013-02-24 08:59:00,
2013-02-24 04:09:00,34.3,32.2,29.68,South,174,0.0,0.0,92,0.00,,,0.01,Wunderground v.1.15,2013-02-24 09:09:00,
2013-02-24 04:20:00,34.3,32.2,29.69,South,174,0.0,0.0,92,0.00,,,0.01,Wunderground v.1.15,2013-02-24 09:20:00,
2013-02-24 04:29:00,34.3,32.2,29.68,South,175,0.0,1.0,92,0.00,,,0.01,Wunderground v.1.15,2013-02-24 09:29:00,
2013-02-24 04:39:00,34.4,32.3,29.68,South,176,0.0,0.0,92,0.00,,,0.01,Wunderground v.1.15,2013-02-24 09:39:00,
2013-02-24 04:50:00,34.4,32.3,29.67,South,178,0.0,0.0,92,0.00,,,0.01,Wunderground v.1.15,2013-02-24 09:50:00,
2013-02-24 04:59:00,34.4,32.3,29.66,South,178,0.0,0.0,92,0.00,,,0.01,Wunderground v.1.15,2013-02-24 09:59:00,
2013-02-24 05:10:00,34.3,32.2,29.66,South,178,0.0,0.0,92,0.00,,,0.01,Wunderground v.1.15,2013-02-24 10:10:00,
2013-02-24 05:19:00,34.3,32.2,29.66,South,178,0.0,0.0,92,0.00,,,0.01,Wunderground v.1.15,2013-02-24 10:19:00,
2013-02-24 05:29:00,34.1,32.0,29.66,South,178,0.0,0.0,92,0.00,,,0.01,Wunderground v.1.15,2013-02-24 10:29:00,
2013-02-24 05:40:00,34.0,31.9,29.66,South,178,0.0,0.0,92,0.00,,,0.01,Wunderground v.1.15,2013-02-24 10:40:00,
2013-02-24 05:49:00,34.1,32.0,29.65,South,184,0.0,1.0,92,0.00,,,0.01,Wunderground v.1.15,2013-02-24 10:49:00,
2013-02-24 05:59:00,34.3,32.2,29.65,SW,229,0.0,0.0,92,0.00,,,0.01,Wunderground v.1.15,2013-02-24 10:59:00,
2013-02-24 06:09:00,34.1,32.0,29.65,SW,229,0.0,0.0,92,0.00,,,0.01,Wunderground v.1.15,2013-02-24 11:09:00,
2013-02-24 06:19:00,34.0,31.9,29.65,SW,229,0.0,0.0,92,0.00,,,0.01,Wunderground v.1.15,2013-02-24 11:19:00,
2013-02-24 06:29:00,34.1,32.0,29.65,SSW,193,0.0,0.0,92,0.00,,,0.01,Wunderground v.1.15,2013-02-24 11:29:00,
2013-02-24 06:40:00,34.4,32.3,29.65,SW,232,1.0,1.0,92,0.00,,,0.01,Wunderground v.1.15,2013-02-24 11:40:00,
2013-02-24 06:49:00,34.4,32.3,29.65,SSW,208,2.0,2.0,92,0.00,,,0.01,Wunderground v.1.15,2013-02-24 11:49:00,
2013-02-24 06:59:00,34.3,32.2,29.65,SSW,206,0.0,0.0,92,0.00,,,0.01,Wunderground v.1.15,2013-02-24 11:59:00,
2013-02-24 07:09:00,34.1,32.0,29.65,SSW,203,0.0,1.0,92,0.00,,,0.01,Wunderground v.1.15,2013-02-24 12:09:00,
2013-02-24 07:19:00,34.1,32.0,29.65,SW,222,0.0,0.0,92,0.00,,,0.01,Wunderground v.1.15,2013-02-24 12:19:00,
2013-02-24 07:30:00,34.7,32.6,29.65,SW,222,0.0,0.0,92,0.00,,,0.01,Wunderground v.1.15,2013-02-24 12:30:00,
2013-02-24 07:39:00,35.0,32.9,29.65,SW,222,0.0,0.0,92,0.00,,,0.01,Wunderground v.1.15,2013-02-24 12:39:00,
2013-02-24 07:49:00,35.0,32.9,29.65,SW,222,0.0,0.0,92,0.00,,,0.01,Wunderground v.1.15,2013-02-24 12:49:00,
2013-02-24 08:00:00,35.0,32.9,29.65,ENE,72,0.0,0.0,92,0.00,,,0.01,Wunderground v.1.15,2013-02-24 13:00:00,
2013-02-24 08:10:00,35.9,33.8,29.65,ENE,75,0.0,0.0,92,0.00,,,0.01,Wunderground v.1.15,2013-02-24 13:10:00,
2013-02-24 08:19:00,36.2,34.1,29.65,WSW,244,0.0,0.0,92,0.00,,,0.01,Wunderground v.1.15,2013-02-24 13:19:00,
2013-02-24 08:29:00,36.3,34.2,29.65,SW,215,0.0,0.0,92,0.00,,,0.01,Wunderground v.1.15,2013-02-24 13:29:00,
2013-02-24 08:39:00,36.5,34.4,29.65,SW,215,2.0,2.0,92,0.00,,,0.01,Wunderground v.1.15,2013-02-24 13:39:00,
2013-02-24 08:49:00,36.6,34.5,29.65,SSW,208,0.0,0.0,92,0.00,,,0.01,Wunderground v.1.15,2013-02-24 13:49:00,
2013-02-24 09:00:00,36.8,34.7,29.66,SSW,208,0.0,0.0,92,0.00,,,0.01,Wunderground v.1.15,2013-02-24 14:00:00,
2013-02-24 09:09:00,36.9,34.8,29.66,SSW,208,0.0,0.0,92,0.00,,,0.01,Wunderground v.1.15,2013-02-24 14:09:00,
2013-02-24 09:20:00,37.0,34.9,29.65,SSW,202,0.0,1.0,92,0.00,,,0.01,Wunderground v.1.15,2013-02-24 14:20:00,
2013-02-24 09:29:00,37.8,35.7,29.64,NW,311,0.0,2.0,92,0.00,,,0.01,Wunderground v.1.15,2013-02-24 14:29:00,
2013-02-24 09:39:00,38.3,36.2,29.64,ESE,106,0.0,0.0,92,0.00,,,0.01,Wunderground v.1.15,2013-02-24 14:39:00,
2013-02-24 11:40:00,41.2,34.5,29.64,East,86,1.0,2.0,77,0.00,,,0.01,Wunderground v.1.15,2013-02-24 16:40:00,
2013-02-24 12:00:00,39.6,33.6,29.64,SW,220,2.0,2.0,79,0.00,,,0.01,Wunderground v.1.15,2013-02-24 17:00:00,
2013-02-24 12:10:00,39.6,33.6,29.64,NNE,14,1.0,1.0,79,0.00,,,0.01,Wunderground v.1.15,2013-02-24 17:10:00,
2013-02-24 12:20:00,40.5,34.5,29.64,SW,216,1.0,1.0,79,0.00,,,0.01,Wunderground v.1.15,2013-02-24 17:20:00,
2013-02-24 12:30:00,40.3,34.3,29.63,East,100,1.0,1.0,79,0.00,,,0.01,Wunderground v.1.15,2013-02-24 17:30:00,
2013-02-24 12:40:00,40.2,34.2,29.63,NE,49,1.0,2.0,79,0.00,,,0.01,Wunderground v.1.15,2013-02-24 17:40:00,
2013-02-24 12:50:00,40.2,34.2,29.63,SSW,196,1.0,1.0,79,0.00,,,0.01,Wunderground v.1.15,2013-02-24 17:50:00,
2013-02-24 13:00:00,40.2,34.2,29.63,ENE,75,0.0,0.0,79,0.00,,,0.01,Wunderground v.1.15,2013-02-24 18:00:00,
2013-02-24 13:10:00,40.1,33.5,29.63,SE,140,1.0,1.0,77,0.00,,,0.01,Wunderground v.1.15,2013-02-24 18:10:00,
2013-02-24 13:20:00,40.5,33.9,29.63,West,275,0.0,0.0,77,0.00,,,0.01,Wunderground v.1.15,2013-02-24 18:20:00,
2013-02-24 13:29:00,40.8,34.1,29.62,SW,226,0.0,0.0,77,0.00,,,0.01,Wunderground v.1.15,2013-02-24 18:29:00,
2013-02-24 13:40:00,40.9,34.2,29.62,ESE,107,0.0,0.0,77,0.00,,,0.01,Wunderground v.1.15,2013-02-24 18:40:00,
2013-02-24 13:50:00,40.6,34.0,29.62,ESE,112,1.0,1.0,77,0.00,,,0.01,Wunderground v.1.15,2013-02-24 18:50:00,
2013-02-24 14:00:00,41.2,34.5,29.62,SSW,213,0.0,1.0,77,0.00,,,0.01,Wunderground v.1.15,2013-02-24 19:00:00,
2013-02-24 14:10:00,41.3,34.6,29.62,SE,145,0.0,0.0,77,0.00,,,0.01,Wunderground v.1.15,2013-02-24 19:10:00,
2013-02-24 14:20:00,42.1,35.4,29.62,WSW,240,0.0,0.0,77,0.00,,,0.01,Wunderground v.1.15,2013-02-24 19:20:00,
2013-02-24 14:30:00,41.6,34.9,29.62,East,90,1.0,1.0,77,0.00,,,0.01,Wunderground v.1.15,2013-02-24 19:30:00,
2013-02-24 14:40:00,41.6,34.9,29.62,East,93,0.0,0.0,77,0.00,,,0.01,Wunderground v.1.15,2013-02-24 19:40:00,
2013-02-24 14:49:00,41.3,34.6,29.62,SSW,206,0.0,0.0,77,0.00,,,0.01,Wunderground v.1.15,2013-02-24 19:49:00,
2013-02-24 14:59:00,41.2,34.5,29.62,WSW,241,0.0,0.0,77,0.00,,,0.01,Wunderground v.1.15,2013-02-24 19:59:00,
2013-02-24 15:09:00,40.8,32.8,29.62,SSE,167,1.0,1.0,73,0.00,,,0.01,Wunderground v.1.15,2013-02-24 20:09:00,
2013-02-24 15:19:00,40.3,32.3,29.63,SSE,165,1.0,1.0,73,0.00,,,0.01,Wunderground v.1.15,2013-02-24 20:19:00,
2013-02-24 15:30:00,40.2,32.2,29.64,SSE,152,1.0,1.0,73,0.00,,,0.01,Wunderground v.1.15,2013-02-24 20:30:00,
2013-02-24 15:40:00,39.8,31.8,29.64,SSW,209,2.0,2.0,73,0.00,,,0.01,Wunderground v.1.15,2013-02-24 20:40:00,
2013-02-24 15:49:00,39.8,31.8,29.64,West,263,1.0,1.0,73,0.00,,,0.01,Wunderground v.1.15,2013-02-24 20:49:00,
2013-02-24 15:59:00,39.5,31.6,29.65,North,0,0.0,0.0,73,0.00,,,0.01,Wunderground v.1.15,2013-02-24 20:59:00,
2013-02-24 16:10:00,39.1,31.2,29.65,West,261,1.0,1.0,73,0.00,,,0.01,Wunderground v.1.15,2013-02-24 21:10:00,
2013-02-24 16:20:00,38.8,30.9,29.66,ENE,59,1.0,1.0,73,0.00,,,0.01,Wunderground v.1.15,2013-02-24 21:20:00,
2013-02-24 16:29:00,38.6,30.7,29.67,SSE,162,2.0,2.0,73,0.00,,,0.01,Wunderground v.1.15,2013-02-24 21:29:00,
2013-02-24 16:39:00,38.3,30.4,29.67,NNW,343,1.0,1.0,73,0.00,,,0.01,Wunderground v.1.15,2013-02-24 21:39:00,
2013-02-24 16:50:00,38.3,30.4,29.68,SW,227,1.0,1.0,73,0.00,,,0.01,Wunderground v.1.15,2013-02-24 21:50:00,
2013-02-24 16:59:00,38.0,30.1,29.69,SSW,196,0.0,0.0,73,0.00,,,0.01,Wunderground v.1.15,2013-02-24 21:59:00,
2013-02-24 17:09:00,37.5,24.5,29.69,East,96,1.0,1.0,59,0.00,,,0.01,Wunderground v.1.15,2013-02-24 22:09:00,
2013-02-24 17:19:00,37.3,24.3,29.69,North,354,0.0,0.0,59,0.00,,,0.01,Wunderground v.1.15,2013-02-24 22:19:00,
2013-02-24 17:30:00,37.3,23.9,29.70,SW,232,0.0,1.0,58,0.00,,,0.01,Wunderground v.1.15,2013-02-24 22:30:00,
2013-02-24 17:40:00,37.0,23.6,29.70,South,175,0.0,0.0,58,0.00,,,0.01,Wunderground v.1.15,2013-02-24 22:40:00,
2013-02-24 17:49:00,36.8,24.2,29.71,West,264,2.0,3.0,60,0.00,,,0.01,Wunderground v.1.15,2013-02-24 22:49:00,
2013-02-24 17:59:00,36.5,23.9,29.72,SW,223,2.0,2.0,60,0.00,,,0.01,Wunderground v.1.15,2013-02-24 22:59:00,
2013-02-24 18:09:00,36.2,23.2,29.72,SE,143,1.0,1.0,59,0.00,,,0.01,Wunderground v.1.15,2013-02-24 23:09:00,
2013-02-24 18:20:00,35.5,22.6,29.73,ESE,116,2.0,2.0,59,0.00,,,0.01,Wunderground v.1.15,2013-02-24 23:20:00,
2013-02-24 18:30:00,35.0,22.1,29.75,SSW,203,1.0,1.0,59,0.00,,,0.01,Wunderground v.1.15,2013-02-24 23:30:00,
2013-02-24 18:39:00,34.9,22.0,29.75,SSE,158,1.0,1.0,59,0.00,,,0.01,Wunderground v.1.15,2013-02-24 23:39:00,
2013-02-24 18:49:00,34.6,21.7,29.76,SSW,193,1.0,1.0,59,0.00,,,0.01,Wunderground v.1.15,2013-02-24 23:49:00,
2013-02-24 19:00:00,34.3,21.4,29.76,SE,137,0.0,1.0,59,0.00,,,0.01,Wunderground v.1.15,2013-02-25 00:00:00,
2013-02-24 19:10:00,34.1,25.0,29.76,SW,223,0.0,0.0,69,0.00,,,0.01,Wunderground v.1.15,2013-02-25 00:10:00,
2013-02-24 19:20:00,33.8,24.7,29.77,SW,226,0.0,0.0,69,0.00,,,0.01,Wunderground v.1.15,2013-02-25 00:20:00,
2013-02-24 19:29:00,33.8,25.4,29.78,WNW,295,1.0,1.0,71,0.00,,,0.01,Wunderground v.1.15,2013-02-25 00:29:00,
2013-02-24 19:39:00,33.8,25.4,29.78,North,357,0.0,0.0,71,0.00,,,0.01,Wunderground v.1.15,2013-02-25 00:39:00,
2013-02-24 19:49:00,33.1,24.7,29.78,SW,233,1.0,1.0,71,0.00,,,0.01,Wunderground v.1.15,2013-02-25 00:49:00,
2013-02-24 19:59:00,33.1,24.7,29.79,SW,216,3.0,3.0,71,0.00,,,0.01,Wunderground v.1.15,2013-02-25 00:59:00,
2013-02-24 20:10:00,32.7,24.3,29.79,NW,322,1.0,1.0,71,0.00,,,0.01,Wunderground v.1.15,2013-02-25 01:10:00,
2013-02-24 20:19:00,32.4,24.0,29.80,SSW,209,1.0,1.0,71,0.00,,,0.01,Wunderground v.1.15,2013-02-25 01:19:00,
2013-02-24 20:29:00,32.2,23.8,29.80,NW,315,0.0,0.0,71,0.00,,,0.01,Wunderground v.1.15,2013-02-25 01:29:00,
2013-02-24 20:39:00,31.9,25.8,29.80,NE,37,0.0,0.0,78,0.00,,,0.01,Wunderground v.1.15,2013-02-25 01:39:00,
2013-02-24 20:49:00,31.9,25.8,29.81,South,174,2.0,2.0,78,0.00,,,0.01,Wunderground v.1.15,2013-02-25 01:49:00,
2013-02-24 21:00:00,31.6,25.5,29.81,South,169,0.0,0.0,78,0.00,,,0.01,Wunderground v.1.15,2013-02-25 02:00:00,
2013-02-24 21:09:00,31.5,25.4,29.81,East,97,0.0,0.0,78,0.00,,,0.01,Wunderground v.1.15,2013-02-25 02:09:00,
2013-02-24 21:19:00,31.3,25.2,29.81,North,0,0.0,0.0,78,0.00,,,0.01,Wunderground v.1.15,2013-02-25 02:19:00,
2013-02-24 21:29:00,31.2,25.1,29.81,North,0,0.0,0.0,78,0.00,,,0.01,Wunderground v.1.15,2013-02-25 02:29:00,
2013-02-24 21:40:00,31.2,25.1,29.81,North,0,0.0,0.0,78,0.00,,,0.01,Wunderground v.1.15,2013-02-25 02:40:00,
2013-02-24 21:49:00,31.2,25.1,29.81,ENE,69,0.0,0.0,78,0.00,,,0.01,Wunderground v.1.15,2013-02-25 02:49:00,
2013-02-24 21:59:00,31.2,25.1,29.82,SSE,158,0.0,0.0,78,0.00,,,0.01,Wunderground v.1.15,2013-02-25 02:59:00,
2013-02-24 22:09:00,31.3,25.2,29.82,SSW,196,0.0,0.0,78,0.00,,,0.01,Wunderground v.1.15,2013-02-25 03:09:00,
2013-02-24 22:19:00,31.5,25.4,29.82,SSW,208,0.0,0.0,78,0.00,,,0.01,Wunderground v.1.15,2013-02-25 03:19:00,
2013-02-24 22:29:00,31.3,25.2,29.82,NNE,13,1.0,1.0,78,0.00,,,0.01,Wunderground v.1.15,2013-02-25 03:29:00,
2013-02-24 22:39:00,31.5,25.4,29.82,NNW,336,0.0,0.0,78,0.00,,,0.01,Wunderground v.1.15,2013-02-25 03:39:00,
2013-02-24 22:49:00,31.5,25.4,29.82,West,272,0.0,0.0,78,0.00,,,0.01,Wunderground v.1.15,2013-02-25 03:49:00,
2013-02-24 23:00:00,31.2,25.1,29.82,NW,316,0.0,0.0,78,0.00,,,0.01,Wunderground v.1.15,2013-02-25 04:00:00,
2013-02-24 23:09:00,31.0,24.9,29.82,WNW,288,0.0,0.0,78,0.00,,,0.01,Wunderground v.1.15,2013-02-25 04:09:00,
2013-02-24 23:19:00,30.7,21.7,29.83,WNW,288,0.0,0.0,69,0.00,,,0.01,Wunderground v.1.15,2013-02-25 04:19:00,
2013-02-24 23:30:00,30.7,21.7,29.83,WNW,295,0.0,0.0,69,0.00,,,0.01,Wunderground v.1.15,2013-02-25 04:30:00,
2013-02-24 23:39:00,30.6,21.6,29.83,WNW,282,0.0,0.0,69,0.00,,,0.01,Wunderground v.1.15,2013-02-25 04:39:00,
2013-02-24 23:49:00,30.6,21.6,29.84,North,359,0.0,0.0,69,0.00,,,0.01,Wunderground v.1.15,2013-02-25 04:49:00,
2013-02-24 23:59:00,30.4,21.4,29.84,North,359,0.0,0.0,69,0.00,,,0.01,Wunderground v.1.15,2013-02-25 04:59:00,